Regional Weather Roundup
Issued by NWS Wakefield, VA

Home | Current Version | Previous Version | Graphics & Text | Print | Product List | Glossary On
Versions: 1 2 3 4 5 6 7 8 9 10 11 12 13 14 15 16 17 18 19 20 21 22 23 24 25 26 27
000
ASUS41 KAKQ 050415
RWRAKQ

REGIONAL WEATHER ROUNDUP
NATIONAL WEATHER SERVICE WAKEFIELD VA
1100 PM EST SUN DEC 04 2016

Note: "fair" indicates few or no clouds below 12,000 feet with no
significant weather and/or obstructions to visibility. * = Denotes
station may not report precipitation (e.g., rain,snow,etc.),
thunder or fog.

VAZ042-051-052>054-056-050500-
NORTHERN VIRGINIA

CITY           SKY/WX    TMP DP  RH WIND       PRES   REMARKS
WASH NATIONAL  LGT RAIN  42  37  82 S12       30.12F
DULLES         LGT RAIN  38  35  89 S7        30.11S FOG
FORT BELVOIR   LGT RAIN  39  36  88 SE7       30.12F
QUANTICO       LGT RAIN  39  37  93 S15       30.13F
FREDERICKSBRG* LGT RAIN  39  39 100 SE6       30.11F
STAFFORD*      DRIZZLE   37  37 100 S5        30.15F
WARRENTON      DRIZZLE   38  34  84 S5        30.10F
CULPEPER*      DRIZZLE   38  38  98 CALM      30.11S
MANASSAS*      CLOUDY    39  39 100 S6        30.11F
LEESBURG*      RAIN      39  37  93 MISG      30.09F
WINCHESTER     HVY RAIN  36  34  93 S9        30.02F
FRONT ROYAL*   CLOUDY    36  36 100 SW3       30.01F
LURAY*         LGT RAIN  37  37 100 SW9       30.01F
$$

VAZ048-049-060>072-079>083-050500-
CENTRAL AND SOUTH CENTRAL VIRGINIA

CITY           SKY/WX    TMP DP  RH WIND       PRES   REMARKS
RICHMOND       LGT RAIN  39  38  96 SE6       30.12F FOG
CHESTERFIELD*  CLOUDY    39  25  56 SE5       30.13F
PETERSBURG*    DRIZZLE   39  38  95 E3        30.12F
HANOVER        CLOUDY    39  37  92 CALM      30.14F FOG
TAPPAHANNOCK*  DRIZZLE   40  40  99 CALM      30.14F
QUINTON*       CLOUDY    40  39  97 MISG      30.14S FOG
CHARLOTTSVILLE RAIN      39  36  89 S8        30.08F FOG
GORDONSVILLE*  CLOUDY    37  37  99 S3        30.10S FOG
ORANGE*        DRIZZLE   37  37 100 CALM      30.12S
LOUISA*        DRIZZLE   41  39  93 S3        30.10F
BUMPASS*       CLOUDY    37  37 100 CALM      30.11F
FARMVILLE*     DRIZZLE   40  40 100 CALM      30.09F
CREWE*         CLOUDY    39  39 100 CALM      30.10F
FORT PICKETT*  CLOUDY    39  36  88 CALM      30.10F
CHASE CITY*    CLOUDY    39  38  95 CALM      30.09F
CLARKSVILLE*   CLOUDY    41  41 100 CALM      30.10S
SOUTH HILL*    CLOUDY    40  40 100 CALM      30.16S
LAWRENCEVILLE* CLOUDY    40  39  97 CALM      30.10F
EMPORIA*       CLOUDY    41  39  93 NE3       30.13F
$$

VAZ088>098-050500-
SOUTHEAST VIRGINIA

CITY           SKY/WX    TMP DP  RH WIND       PRES   REMARKS
NORFOLK        CLOUDY    45  41  86 SE3       30.13F
VIRGINIA BEACH CLOUDY    44  41  89 E3        30.13F
NORFOLK NAVAL  CLOUDY    45  41  86 CALM      30.15F
WEST POINT*    CLOUDY    41  39  92 E3        30.16F
SALUDA*        CLOUDY    41  40  94 CALM      30.15S
NEWPORT NEWS   CLOUDY    44  41  89 SE3       30.14F
LANGLEY AFB    LGT RAIN  45  41  87 SE6       30.13F
FORT EUSTIS    CLOUDY    43  39  87 SE3       30.12F
WILLIAMSBURG*  CLOUDY    43  43 100 CALM      30.15F
HR EXEC AP*    CLOUDY    43  39  87 CALM      30.13F
FRANKLIN*      DRIZZLE   42  40  93 E3        30.14F
US460-WAKEFLD  LGT RAIN  41  40  96 CALM      30.14F FOG
$$

VAZ020-022-025-037-045-050500-
WEST CENTRAL AND SOUTHWEST VIRGINIA

CITY           SKY/WX    TMP DP  RH WIND       PRES   REMARKS
STAUNTON*      DRIZZLE   35  34  98 S7        30.05F
WAYNESBORO*    CLOUDY    35  34  96 CALM      30.04S
HOT SPRINGS VA NOT AVBL
LYNCHBURG      LGT RAIN  37  36  96 CALM      30.10R FOG
DANVILLE       LGT RAIN  39  39 100 VRB3      30.09F FOG
SOUTH BOSTON*  CLOUDY    40  39  95 CALM      30.11F
MARTINSVILLE   CLOUDY    38  37  98 CALM      30.10F FOG
ROANOKE        LGT RAIN  37  36  96 SE5       30.08S FOG
BLACKSBURG     DRIZZLE   35  35 100 SE5       30.05F
DUBLIN*        MIX PCPN  37  37 100 NE5       30.02F
MARION*        CLOUDY    38  37  96 E3        30.02R
HILLSVILLE*    CLOUDY    37  37 100 S7        29.98F
RICHLANDS*     FOG       44  44 100 W5        29.96S VSB 1
WISE*          CLOUDY    43  43 100 SW6       29.98R FOG
ABINGDON*      DRIZZLE   45  44  99 CALM      29.99R
$$

MDZ021>025-VAZ099-100-050500-
SOUTHERN MARYLAND AND THE DELMARVA PENINSULA

CITY           SKY/WX    TMP DP  RH WIND       PRES   REMARKS
PATUXENT RIVER CLOUDY    42  36  79 S6        30.14F
BAY BRIDGE APT LGT RAIN  43  37  81 S6        30.13F
LEONARDTOWN    CLOUDY    41  36  81 S3        30.15F
DOVER          PTCLDY    42  35  77 S5        30.14F
GEORGETOWN     CLOUDY    42  34  73 S5        30.17S
EASTON         LGT RAIN  42  35  75 S5        30.17F
CAMBRIDGE      CLOUDY    39  36  87 CALM      30.14F
SALISBURY      LGT RAIN  40  35  83 CALM      30.16S
OCEAN CITY     CLOUDY    42  35  76 W3        30.17S
WALLOPS ISLAND CLOUDY    43  36  76 CALM      30.16F
ACCOMACK*      CLOUDY    42  40  93 CALM      30.15F
$$

NCZ012>017-030>032-050500-
NORTH CENTRAL AND EASTERN NORTH CAROLINA

CITY           SKY/WX    TMP DP  RH WIND       PRES   REMARKS
ROANOKE RAPIDS DRIZZLE   43  41  93 CALM      30.11S
RALEIGH        LGT RAIN  42  41  96 SE3       30.10F FOG
ELIZABETH CITY LGT RAIN  45  42  89 E6        30.14F
AHOSKIE*       HVY RAIN  42  41  97 CALM      30.13S
EDENTON*       DRIZZLE   47  44  87 CALM      30.13F
CURRITUCK*     DRIZZLE   45  45 100 CALM      30.15F
KILL DEVIL HLS RAIN      48  44  85 E5        30.13F
MANTEO         DRIZZLE   48  43  85 E3        30.14F
CAPE HATTERAS  LGT RAIN  50  45  83 E3        30.12F
TARBORO*       NOT AVBL
GOLDSBORO      MIX PCPN  44  44 100 E6        30.08F
WASHINGTON     LGT RAIN  44  43  95 E3        30.12F
GREENVILLE     RAIN      45  45 100 CALM      30.13F
NEW BERN       LGT RAIN  47  44  90 E5        30.11F
WILMINGTON     LGT RAIN  51  51 100 E3        30.06F
$$

VAZ048-050500-
ELSEWHERE

CITY           SKY/WX    TMP DP  RH WIND       PRES   REMARKS
HARRISBURG PA  LGT RAIN  42  33  70 S10       30.07F
BALTIMORE      LGT RAIN  40  36  86 VRB3      30.12F
ANNAPOLIS      LGT RAIN  43  36  76 S7        30.12F
ANDREWS AFB    DRIZZLE   39  36  87 S10       30.10F
PHILADELPHIA   CLOUDY    43  30  60 S6        30.14F
HENDERSON NC   DRIZZLE   38  37  96 SE3       30.09F
GREENSBORO     LGT RAIN  41  41 100 CALM      30.07F FOG
ROCKY MOUNT    LGT RAIN  43  43 100 CALM      30.10F FOG
$$

VAZ100-050500-
MARINE

STATION/POSITION TIME  TEMP    WIND        PRES    WAVE   SWELL
                       AIR SEA DIR/SP/G            HT/PER HT/PER
                 (UTC) (F)     (DEG/KT/KT) (MB)    (FT/S) (FT/S)
BRANDYWINE LGT   0342   44     220/ 14/ 15   N/A
CAPE MAY NJ      0342   45 48  210/  3/  5 1020.7F
LEWES DE         0342   43 49  230/  4/  6 1021.1F
OCEAN-CITY-INLET 0336   44 50  270/  5/  7 1022.2R
WACHAPREAGUE VA  0336   43 48   CALM  /  1 1021.4F
THOMAS POINT MD  0400   43 49  190/ 17/ 18   N/A
GOOSES REEF MD   0400   44 50  180/ 12/ 14 1021.0    1/ 2
COVE POINT MD    0336   42     220/  8/ 11 1021.3F
SOLOMONS ISLAND  0336   43 51  200/  7/  8   N/A
BISHOPS HEAD MD  0336   44 44  160/  9/ 11 1021.0F
PINEY POINT MD   0336          210/  9/ 11   N/A
POTOMAC MD       0400   44 51  210/  8/ 10 1019.9    1/ 2
CAMBRIDGE MD     0336   42 47  150/  2/  4 1020.3F
LEWISETTA VA     0336   43 48  180/  4/  5 1020.9F
RAPPAHANNOCK LGT 0336          140/  8/  9 1021.5F
STINGRAY PT      0400   45     170/  8/ 10 1021.3
YORK RVR RNG VA  0336   47     160/ 10/ 12 1020.2F
YORKTOWN VA      0336   44 52  160/  3/  4 1020.4F
JAMESTOWN VA     0400   44 51   80/  4/  6   N/A     1
DOMINION TERM VA 0336   46     130/ 11/ 12 1020.5F
KIPTOPEKE VA     0336      51  100/  5/  6   N/A
CHES BAY BRIDGE  0336   47 54  140/  6/ 10 1020.6F
CAPE HENRY VA    0336   46     120/  9/ 10   N/A
WILLOUBY STN VA  0336   45     120/  8/ 10 1021.4F
S CRANEY ISL VA  0336   45     120/  7/  9 1020.3F
CAPE HENRY BUOY  0342      56                N/A     2/ 6
1ST LANDING BUOY 0400   47 53              1020.5    1/ 3
CAPE CHARLES BUO 0356      55                N/A     2/ 5
OFFSHORE WE BUOY 0351      56                N/A     3/ 7
64NM E OF VA BCH 0350   51 60   80/  4/  6 1021.3S   3/ 6   3/ 6
DUCK PIER NC     0336   49 55  100/ 10/ 11 1020.0F
44100 DUCK FRF   0335      56                N/A     3/ 5
OREGON INLET NC  0336   50 55   80/  5/  7 1020.6F
HATTERAS NC      0336   51 58   50/  4/  6 1019.8F
DIAMOND SHLS NC  0350   62 74  140/  8/ 12 1020.1F   3/ 9   3/ 9
CAPE LOOKOUT NC  0300   57     100/ 14/ 17 1019.4F
$$




USA.gov is the U.S. government's official web portal to all federal, state and local government web resources and services.